This demonstration page uses our WeatherBlox Daily Observations layout. Learn more.

Hourly Observations for February 11, 2020

Temp ( °F °C ) Dew Point ( °F °C ) Humidity (%) Winds ( mph kmh ) Pressure ( in mb ) Visibility ( mi km ) Precip ( " mm )
12:15 am 00:15 Cloudy 43 6 43 6 100 100 Calm 30.09 1019 4 6.43736 0.01 0.254
12:35 am 00:35 Cloudy 43 6 43 6 100 100 Calm 30.08 1019 3 4.82802 0.01 0.254
12:55 am 00:55 Cloudy 43 6 43 6 100 100 Calm 30.06 1018 5 8.0467 0.01 0.254
1:15 am 01:15 Cloudy 43 6 43 6 100 100 Calm 30.05 1018 4 6.43736 0 0
1:35 am 01:35 Cloudy 43 6 43 6 100 100 Calm 30.05 1018 4 6.43736 0 0
1:55 am 01:55 Cloudy 43 6 43 6 100 100 Calm 30.03 1017 4 6.43736 0 0
2:15 am 02:15 Cloudy 43 6 43 6 100 100 Calm 30.02 1017 4 6.43736 0 0
2:35 am 02:35 Cloudy 43 6 43 6 100 100 Calm 30.02 1017 1.75 2.816345 0 0
2:55 am 02:55 Cloudy 43 6 43 6 100 100 Calm 30.01 1016 1.75 2.816345 0 0
3:15 am 03:15 Cloudy 43 6 43 6 100 100 Calm 30.01 1016 2.5 4.02335 0 0
3:35 am 03:35 Cloudy 43 6 43 6 100 100 Calm 29.99 1016 2.5 4.02335 0 0
3:55 am 03:55 Cloudy 43 6 43 6 100 100 N 3 6 29.99 1016 2 3.21868 0.01 0.254
4:15 am 04:15 Cloudy 43 6 43 6 100 100 Calm 29.99 1016 2.5 4.02335 0.01 0.254
4:35 am 04:35 Cloudy 43 6 43 6 100 100 Calm 29.99 1016 2.5 4.02335 0.03 0.762
4:55 am 04:55 Cloudy 43 6 43 6 100 100 Calm 29.99 1016 2.5 4.02335 0.05 1.27
5:15 am 05:15 Cloudy 43 6 43 6 100 100 Calm 30 1016 3 4.82802 0.01 0.254
5:35 am 05:35 Cloudy 43 6 43 6 100 100 N 3 6 30.01 1016 2 3.21868 0.07 1.778
5:55 am 05:55 Cloudy 43 6 43 6 100 100 N 3 6 30.02 1017 3 4.82802 0.12 3.048
6:15 am 06:15 Cloudy 43 6 43 6 100 100 Calm 30 1016 4 6.43736 0.03 0.762
6:35 am 06:35 Cloudy 43 6 43 6 100 100 Calm 29.98 1015 4 6.43736 0.05 1.27
6:55 am 06:55 Cloudy 43 6 43 6 100 100 Calm 29.98 1015 4 6.43736 0.05 1.27
7:15 am 07:15 Cloudy 43 6 43 6 100 100 Calm 29.98 1015 4 6.43736 0 0
7:35 am 07:35 Cloudy 43 6 43 6 100 100 Calm 29.98 1015 2.5 4.02335 0 0
7:55 am 07:55 Cloudy 43 6 43 6 100 100 Calm 29.97 1015 2.5 4.02335 0 0
8:15 am 08:15 Cloudy 43 6 43 6 100 100 Calm 29.98 1015 4 6.43736 0 0
8:35 am 08:35 Cloudy 43 6 43 6 100 100 Calm 29.98 1015 3 4.82802 0 0
8:55 am 08:55 Cloudy 43 6 43 6 100 100 Calm 29.98 1015 2.5 4.02335 0 0
9:15 am 09:15 Cloudy 43 6 43 6 100 100 Calm 29.97 1015 3 4.82802 0 0
9:35 am 09:35 Cloudy 43 6 43 6 100 100 Calm 29.96 1015 2.5 4.02335 0.01 0.254
9:55 am 09:55 Cloudy 43 6 43 6 100 100 Calm 29.96 1015 2.5 4.02335 0.02 0.508
10:15 am 10:15 Cloudy 45 7 45 7 100 100 Calm 29.95 1014 3 4.82802 0.01 0.254
10:35 am 10:35 Cloudy 45 7 45 7 100 100 NNE 5 7 29.95 1014 4 6.43736 0.01 0.254
10:55 am 10:55 Cloudy 45 7 45 7 100 100 N 5 7 29.96 1015 4 6.43736 0.03 0.762
11:15 am 11:15 Cloudy 45 7 45 7 100 100 Calm 29.95 1014 5 8.0467 0 0
11:35 am 11:35 Cloudy 45 7 45 7 100 100 NE 3 6 29.94 1014 4 6.43736 0 0
11:55 am 11:55 Cloudy 45 7 45 7 100 100 Calm 29.93 1014 4 6.43736 0 0
12:15 pm 12:15 Cloudy 45 7 45 7 100 100 NNE 5 7 29.93 1014 4 6.43736 0 0
12:35 pm 12:35 Cloudy 46 8 46 8 100 100 NNE 3 6 29.92 1013 5 8.0467 0 0
12:55 pm 12:55 Cloudy 46 8 46 8 100 100 NNE 3 6 29.92 1013 7 11.26538 0 0
1:15 pm 13:15 Cloudy 46 8 46 8 100 100 NNE 3 6 29.9 1012 10 16.0934 0 0
1:35 pm 13:35 Cloudy 46 8 46 8 100 100 NNE 5 7 29.89 1012 10 16.0934 0 0
1:55 pm 13:55 Cloudy 48 9 48 9 100 100 NNE 6 9 29.88 1012 10 16.0934 0 0
2:15 pm 14:15 Cloudy 48 9 48 9 100 100 N 6 9 29.88 1012 10 16.0934 0 0
2:35 pm 14:35 Cloudy 48 9 46 8 94 94 N 10 17 29.88 1012 10 16.0934 0 0
2:55 pm 14:55 Cloudy 46 8 46 8 100 100 N 9 15 29.88 1012 10 16.0934 0 0
3:15 pm 15:15 Cloudy 46 8 46 8 100 100 N 5 7 29.88 1012 7 11.26538 0 0
3:35 pm 15:35 Cloudy 46 8 46 8 100 100 N 3 6 29.88 1012 10 16.0934 0 0
3:55 pm 15:55 Cloudy 46 8 46 8 100 100 Calm 29.87 1011 10 16.0934 0 0
4:15 pm 16:15 Cloudy 46 8 46 8 100 100 Calm 29.88 1012 10 16.0934 0 0
4:35 pm 16:35 Cloudy 46 8 46 8 100 100 N 5 7 29.89 1012 10 16.0934 0 0
4:55 pm 16:55 Cloudy 46 8 46 8 100 100 N 5 7 29.89 1012 4 6.43736 0 0
5:15 pm 17:15 Cloudy 46 8 46 8 100 100 NNW 3 6 29.9 1012 7 11.26538 0 0
5:35 pm 17:35 Cloudy 46 8 46 8 100 100 NNW 7 11 29.9 1012 7 11.26538 0 0
5:55 pm 17:55 Cloudy 46 8 46 8 100 100 NNW 7 11 29.91 1013 10 16.0934 0 0
6:15 pm 18:15 Cloudy 45 7 45 7 100 100 NNW 6 9 29.93 1014 10 16.0934 0 0
6:35 pm 18:35 Cloudy 45 7 45 7 100 100 NNW 7 11 29.94 1014 10 16.0934 0 0
6:55 pm 18:55 Cloudy 46 8 45 7 93 93 N 6 9 29.96 1015 10 16.0934 0 0
7:15 pm 19:15 Cloudy 46 8 43 6 87 87 N 7 11 29.96 1015 10 16.0934 0 0
7:35 pm 19:35 Cloudy 46 8 43 6 87 87 NNW 6 9 29.96 1015 10 16.0934 0 0
7:55 pm 19:55 Cloudy 46 8 43 6 87 87 NW 6 9 29.98 1015 10 16.0934 0 0
8:15 pm 20:15 Cloudy 46 8 41 5 82 82 NNW 14 22 29.97 1015 10 16.0934 0 0
8:35 pm 20:35 Cloudy 46 8 39 4 76 76 NW 16 26 29.98 1015 10 16.0934 0 0
8:55 pm 20:55 Partly Cloudy 46 8 37 3 71 71 NNW 12 19 29.98 1015 10 16.0934 0 0
9:15 pm 21:15 Partly Cloudy 46 8 37 3 71 71 NNW 14 22 29.99 1016 10 16.0934 0 0
9:35 pm 21:35 Mostly Cloudy 46 8 37 3 71 71 NNW 14 22 30.01 1016 10 16.0934 0 0
9:55 pm 21:55 Partly Cloudy 45 7 37 3 76 76 N 10 17 30.03 1017 10 16.0934 0 0
10:15 pm 22:15 Clear 45 7 37 3 76 76 NNW 16 26 30.04 1017 10 16.0934 0 0
10:35 pm 22:35 Mostly Cloudy 45 7 37 3 76 76 NW 17 28 30.04 1017 10 16.0934 0 0
10:55 pm 22:55 Mostly Cloudy 45 7 36 2 71 71 NW 12 19 30.07 1018 10 16.0934 0 0
11:15 pm 23:15 Partly Cloudy 45 7 36 2 71 71 NW 13 20 30.07 1018 10 16.0934 0 0
11:35 pm 23:35 Clear 45 7 36 2 71 71 WNW 14 22 30.08 1019 10 16.0934 0 0
11:55 pm 23:55 Clear 43 6 36 2 76 76 WNW 12 19 30.09 1019 10 16.0934 0 0

Powered by AerisWeather